This is the latest recevied weather packets stored in our database for station/object IK8TGH-3. If no packets are shown the sender has not sent any weather packets the latest 10 day(s).
| Time | Temp. | Humidity | Pressure | Rain* | Wind** | Luminosity | Snow |
|---|---|---|---|---|---|---|---|
| 1777570365 | 19.44° C | 53% | 1016.7 hPa | - | - | - | - |
| 1777569165 | 19.44° C | 52% | 1016.7 hPa | - | - | - | - |
| 1777567964 | 18.89° C | 51% | 1016.5 hPa | - | - | - | - |
| 1777566764 | 19.44° C | 50% | 1016.3 hPa | - | - | - | - |
| 1777565564 | 18.89° C | 50% | 1016.2 hPa | - | - | - | - |
| 1777564363 | 18.89° C | 49% | 1016.3 hPa | - | - | - | - |
| 1777563163 | 19.44° C | 50% | 1016.2 hPa | - | - | - | - |
| 1777561963 | 18.89° C | 53% | 1016.2 hPa | - | - | - | - |
| 1777560762 | 19.44° C | 52% | 1015.9 hPa | - | - | - | - |
| 1777559562 | 18.89° C | 50% | 1016.1 hPa | - | - | - | - |
| 1777558362 | 18.89° C | 47% | 1015.9 hPa | - | - | - | - |
| 1777557161 | 18.89° C | 52% | 1016 hPa | - | - | - | - |
| 1777555961 | 18.89° C | 51% | 1016.5 hPa | - | - | - | - |
| 1777554761 | 18.89° C | 51% | 1016.5 hPa | - | - | - | - |
| 1777553560 | 18.89° C | 52% | 1016.5 hPa | - | - | - | - |
| 1777552360 | 18.33° C | 52% | 1016.9 hPa | - | - | - | - |
| 1777551160 | 18.33° C | 53% | 1016.9 hPa | - | - | - | - |
| 1777549959 | 18.33° C | 51% | 1016.4 hPa | - | - | - | - |
| 1777548759 | 18.33° C | 51% | 1016.5 hPa | - | - | - | - |
| 1777547559 | 17.78° C | 48% | 1016.1 hPa | - | - | - | - |
| 1777546359 | 17.78° C | 48% | 1016.2 hPa | - | - | - | - |
| 1777545158 | 17.78° C | 53% | 1016.2 hPa | - | - | - | - |
| 1777543958 | 17.78° C | 58% | 1016.4 hPa | - | - | - | - |
| 1777542757 | 17.78° C | 58% | 1016.8 hPa | - | - | - | - |
| 1777541557 | 17.78° C | 58% | 1017 hPa | - | - | - | - |
* Rain since midnight (hover to see other rain measurements)
** Current wind speed in m/s (hover to see current wind gust speed)